SCP
0 0 0 0 0 0 0 -0 -0 -0 -0 0 0 0 0 0 0 0 0 0 0 -0 -0 -0 0 -0 0 0 0 -0 -0 0 0 0 0 0 0 0 0 0 0 0 0
0 0 0 0 0 0 0 0 -0 -0 -0 -0 -0 0 0 0 0 0 0 0 0 0 -0 -0 -0 -0 -0 0 0 -0 0 0 0 0 0 0 0 0 0 0 0 0 0
0 0 0 0 0 0 0 0 0 -0 -0 -0 -0 0 0 0 0 0 0 0 0 0 -0 -0 -0 -0 -0 -0 -0 -0 0 0 0 0 0 0 0 0 0 0 0 0 0
0 0 0 0 0 0 0 0 0 0 0 0 0 0 0 0 0 0 0 0 0 0 -0 0 0 -0 -0 -0 -0 -0 -0 0 0 0 0 0 0 0 0 0 0 0 0
0 0 0 0 0 0 0 0 0 0 0 0 0 0 0 0 0 0 0 0 0 0 0 0 0 0 0 -0 -0 -0 0 0 0 0 0 0 0 0 0 0 0 0 0
0 0 0 0 0 0 0 0 0 0 0 0 0 0 0 0 0 0 0 0 0 0 0 0 0 0 0 -0 -0 0 0 0 0 0 0 0 0 0 0 0 0 0 0
0 0 0 0 0 0 0 0 0 0 0 0 0 0 0 0 0 0 0 0 0 0 0 0 0 0 0 0 -0 0 0 0 0 0 0 0 0 0 0 0 0 0 0
0 0 0 0 0 0 0 0 0 0 0 0 0 0 0 0 0 0 0 0 0 0 0 0 0 0 0 0 0 0 0 0 0 0 0 0 0 0 0 0 0 0 0
0 0 0 0 0 0 0 0 0 0 0 0 0 0 0 0 0 0 0 0 0 0 0 0 0 0 0 0 0 0 0 0 0 0 0 0 0 0 0 0 0 0 0
0 0 0 0 0 0 0 0 0 0 0 0 0 0 0 0 0 0 0 0 0 0 0 0 0 0 0 0 0 0 0 0 0 0 0 0 0 0 0 0 0 0 0
0 0 0 0 0 0 0 0 0 0 0 0 0 0 0 0 0 0 0 0 0 0 0 0 0 0 0 0 0 0 0 0 0 0 0 0 0 0 0 0 0 0 0
0 0 0 0 0 0 0 0 0 0 0 0 0 0 0 0 0 0 0 0 0 0 0 0 0 0 0 0 0 0 0 0 0 0 0 0 0 0 0 -0 -0 0 0
0 0 0 0 0 0 0 0 0 0 0 0 0 0 0 0 0 0 0 0 0 0 0 0 0 0 0 0 0 0 0 0 0 0 0 0 0 0 0 0 0 0 0
0 0 0 0 0 0 0 0 0 0 0 0 0 0 0 0 0 0 0 0 0 0 0 0 0 0 0 0 0 0 0 0 0 0 0 0 0 0 0 0 0 0 0
0 0 0 0 0 0 0 0 0 0 0 0 0 0 0 0 0 0 0 0 0 0 0 0 0 0 0 0 0 0 0 0 0 0 0 0 0 0 -0 0 0 0 0
0 0 0 0 0 0 0 0 0 0 0 0 0 0 0 0 0 0 0 0 0 0 0 0 0 0 0 0 0 0 0 0 0 0 0 0 0 0 0 -0 0 0 0
0 0 0 0 0 0 0 0 0 0 0 0 0 0 0 0 0 0 0 0 0 0 0 0 0 0 0 0 0 0 0 0 0 0 0 0 0 0 0 0 -0 0 0
0 0 0 0 0 0 0 0 0 0 0 0 0 0 0 0 0 0 0 0 0 0 0 0 0 0 0 0 0 0 0 0 0 0 0 0 0 0 0 0 0 0 0
0 0 0 0 0 0 0 0 0 0 0 0 0 0 0 0 0 0 0 0 0 0 0 0 0 0 0 0 0 0 0 0 0 0 0 0 0 0 0 0 0 0 0
0 0 0 0 0 0 0 0 0 0 0 0 0 0 0 0 0 0 0 0 0 0 0 0 0 0 0 0 0 0 0 0 0 0 0 0 0 0 0 0 0 0 0
0 0 0 0 0 0 0 0 0 0 0 0 0 0 0 0 0 0 0 0 0 0 0 0 0 0 0 0 0 0 0 0 0 0 0 0 0 0 0 0 0 0 0
0 0 0 0 0 0 0 0 0 0 0 0 0 0 0 0 0 0 0 0 0 0 0 0 0 0 0 0 0 0 0 0 0 0 0 0 0 0 0 0 0 0 0
0 0 0 0 0 0 0 0 0 0 0 0 0 0 0 0 0 0 0 0 0 0 0 0 0 0 0 0 0 0 0 0 0 0 0 0 0 0 0 0 0 0 0
0 0 0 0 0 0 0 0 0 0 0 0 0 0 0 0 0 0 0 0 0 0 0 0 0 0 0 0 0 0 0 0 0 0 0 0 0 0 0 0 0 0 0
0 0 0 0 0 0 0 0 0 0 0 0 0 0 0 0 0 0 0 0 0 0 0 0 0 0 0 0 0 0 0 0 0 0 0 0 0 0 0 0 0 0 0
0 0 0 0 0 0 0 0 0 0 0 0 0 0 0 0 0 0 0 0 0 0 0 0 0 0 0 0 0 0 0 0 0 0 0 0 0 0 0 0 0 0 0
Wind_Speed_500mb
31 27 27 21 26 34 46 55 62 64 61 63 56 37 33 37 42 50 48 51 50 46 54 52 57 48 37 36 36 39 39 30 21 22 28 13 11 11 14 13 24 33 37
25 19 24 21 28 39 45 51 58 67 69 76 67 43 31 40 41 42 40 34 35 43 52 54 45 40 34 36 36 37 36 29 28 29 23 12 17 10 2 3 7 17 26
24 30 26 32 32 39 43 45 54 61 69 69 65 43 38 45 47 39 47 41 42 46 53 52 44 41 38 37 34 32 33 35 28 21 16 10 9 31 4 8 8 12 16
33 32 32 30 32 36 38 39 46 51 64 63 56 49 40 43 39 32 35 37 44 47 48 47 43 41 40 35 33 31 28 28 30 25 11 14 21 11 14 16 18 18 17
41 40 31 24 21 23 27 33 39 48 56 61 58 57 33 36 40 38 34 33 37 39 47 45 46 45 45 41 35 30 28 24 27 23 22 22 16 14 19 27 13 17 16
37 38 31 25 27 20 18 26 39 46 49 53 60 57 38 40 44 48 46 45 44 43 49 45 46 48 40 46 38 28 30 28 25 23 24 25 24 21 16 22 24 21 14
35 29 26 26 28 16 21 31 39 38 43 50 58 51 41 42 46 50 47 46 45 47 48 52 46 44 42 42 35 32 32 32 29 26 24 21 19 23 19 18 19 15 9
27 28 26 26 26 14 23 33 37 34 43 45 50 46 34 41 46 45 43 44 44 44 48 52 46 40 37 40 38 34 33 32 34 29 30 22 13 7 17 18 13 9 1
33 32 30 28 27 25 26 31 35 35 39 38 45 41 31 40 39 40 41 38 41 48 46 53 44 36 34 39 39 38 36 33 31 33 33 21 11 4 8 7 7 7 4
36 31 28 25 22 24 25 21 23 31 34 32 44 44 32 35 35 37 45 36 39 48 56 48 42 39 36 38 41 39 37 34 32 33 33 27 20 12 3 2 5 4 6
38 32 26 21 19 13 19 23 25 26 32 30 46 43 28 36 37 33 42 40 39 45 49 46 42 39 39 36 42 42 41 34 28 27 27 25 20 18 13 8 4 1 3
38 32 25 22 20 18 15 21 25 23 30 27 38 45 29 35 40 34 38 35 35 43 48 40 44 41 42 33 41 49 42 36 31 29 28 27 22 20 12 11 11 8 7
34 30 24 22 18 17 14 18 25 16 22 25 31 38 40 41 39 36 39 37 36 45 49 41 43 42 36 36 37 45 44 41 37 33 36 33 27 27 22 14 11 13 12
32 27 22 19 18 18 13 17 25 21 18 21 27 32 34 39 36 38 36 41 35 42 44 49 46 39 34 34 37 40 41 41 35 30 29 37 33 30 26 17 14 11 11
32 24 20 13 14 14 14 19 27 23 20 17 21 25 29 33 34 34 36 36 34 38 39 43 40 36 35 40 44 41 42 52 49 38 33 32 33 32 27 21 15 10 11
29 22 16 7 9 11 9 17 24 16 20 15 16 17 21 24 29 34 33 30 32 33 36 39 36 32 37 40 43 48 48 46 46 44 34 33 40 40 32 25 17 14 15
22 17 10 5 9 8 8 15 16 9 21 10 16 18 15 22 25 30 27 28 27 28 33 39 32 26 27 28 32 38 42 43 49 45 34 28 31 33 34 39 28 11 6
26 20 15 8 3 4 7 14 9 16 16 14 14 19 16 19 25 31 29 29 27 26 29 32 32 25 25 26 30 30 33 37 39 45 48 38 31 26 27 35 41 40 35
22 16 9 1 2 6 5 12 9 18 12 13 12 19 26 11 20 31 26 28 25 28 26 25 29 29 27 22 21 25 30 32 29 37 42 40 25 27 30 32 34 40 43
13 12 6 2 5 8 3 11 9 18 17 11 11 16 23 21 19 27 21 24 26 24 28 30 24 25 25 26 27 26 28 29 29 33 35 29 26 23 24 25 26 26 26
16 11 5 9 9 9 8 10 16 16 17 13 9 14 14 21 22 22 22 24 28 29 29 27 30 25 22 20 23 26 23 30 30 29 29 22 17 18 20 21 22 26 22
10 13 14 12 6 4 5 8 20 15 14 15 14 8 13 17 15 18 21 26 23 26 24 29 32 32 29 25 24 25 21 26 28 31 33 30 19 8 8 10 15 22 29
13 13 16 11 10 9 13 16 18 18 18 15 18 18 13 15 18 21 19 24 27 27 30 27 29 33 31 31 29 24 23 26 32 36 35 27 30 10 3 5 6 6 14
17 16 14 11 10 10 12 17 20 23 24 14 15 12 22 20 18 20 21 20 22 27 30 29 29 30 31 30 28 25 28 33 38 34 31 27 23 8 5 4 4 1 6
13 18 15 13 12 14 18 20 21 27 29 24 16 18 19 24 20 27 33 24 26 26 31 27 31 32 31 30 32 34 32 35 36 35 33 24 15 15 7 1 4 1 4
18 23 22 22 21 18 20 21 24 29 31 27 18 14 14 17 15 20 29 28 31 30 31 29 30 31 32 30 32 32 31 32 36 39 30 25 16 14 11 9 6 4 9
Wind_Direction_500mb
92 62 35 41 24 22 16 17 17 20 18 20 20 23 31 22 25 26 25 16 7 17 14 10 5 5 1 0 352 342 343 346 335 319 288 283 307 320 332 302 240 238 245
94 76 80 54 38 23 18 18 17 13 15 11 11 28 39 29 25 40 24 30 11 8 4 0 5 1 360 360 356 359 357 2 23 9 357 332 291 275 301 295 259 257 258
95 104 87 59 40 28 19 16 13 14 8 8 14 37 43 34 27 33 33 35 22 8 9 11 7 9 5 2 358 352 353 351 7 10 5 337 327 317 238 327 318 294 290
121 98 80 69 48 33 13 9 16 13 9 8 24 25 34 28 19 9 7 16 12 5 4 5 7 7 1 355 353 351 351 346 348 353 343 314 299 308 302 299 285 268 276
107 96 83 69 53 26 10 11 15 10 13 12 18 12 14 17 18 21 22 9 11 12 4 2 2 2 358 350 345 351 0 342 333 330 329 327 318 289 275 296 287 269 260
108 93 77 49 36 35 21 12 8 11 16 16 16 17 30 33 31 26 22 17 12 11 7 8 3 359 9 9 13 15 8 360 345 327 316 304 300 297 290 278 294 302 295
107 95 84 52 37 57 35 18 9 25 19 15 13 20 37 38 27 22 19 16 14 8 4 359 3 5 8 13 13 12 14 12 2 348 337 322 290 271 275 285 290 301 323
110 97 87 70 46 54 34 26 26 28 21 11 13 22 31 30 27 19 20 15 11 9 1 4 4 2 12 20 21 19 13 11 8 2 346 326 300 286 292 277 270 294 346
115 102 91 80 54 48 52 40 32 22 16 9 14 19 32 29 22 17 16 12 8 4 6 4 5 18 18 19 22 19 16 13 9 16 22 29 15 309 281 231 251 274 286
111 96 93 88 78 42 25 23 19 12 8 9 19 21 25 17 15 16 15 9 9 9 15 6 12 19 19 19 18 17 20 18 26 34 40 44 41 41 21 252 237 229 248
105 100 92 76 54 45 16 19 20 14 8 16 24 21 24 17 15 14 11 10 16 13 5 8 7 11 20 24 23 19 18 23 28 35 34 32 40 39 45 61 115 147 189
101 96 85 66 55 38 15 6 13 28 9 13 19 16 28 15 19 18 8 5 14 12 8 12 7 15 21 24 24 20 20 25 29 32 29 34 32 33 49 72 68 68 76
112 96 77 60 64 33 15 4 7 50 18 3 9 13 20 15 15 15 17 17 16 12 17 20 18 17 25 25 28 27 31 34 32 33 43 48 51 45 49 74 59 74 63
116 111 90 63 40 36 12 5 5 35 39 12 7 6 16 15 10 8 13 12 17 19 22 21 20 23 28 34 35 33 35 33 29 36 34 45 51 54 56 60 73 71 48
112 111 111 91 41 41 14 360 0 28 26 18 5 7 10 8 10 4 9 7 16 20 23 21 26 38 46 43 47 52 43 42 46 48 58 55 50 49 49 52 57 45 41
115 118 120 99 62 15 22 355 4 27 6 30 4 358 15 7 9 3 3 10 14 19 23 26 30 49 52 56 53 47 42 42 42 43 50 54 50 44 45 43 47 68 87
125 136 134 82 78 35 17 355 15 13 355 35 2 356 6 350 354 356 2 13 15 17 17 23 25 37 38 49 40 28 27 33 39 36 33 35 27 27 39 41 45 50 36
129 137 141 129 96 11 37 5 9 347 0 10 1 347 353 10 6 360 10 10 8 15 10 16 22 25 31 34 40 28 21 23 26 27 25 21 23 46 65 60 59 65 71
141 149 174 263 67 35 33 32 1 341 354 356 360 344 352 355 351 8 1 8 9 16 6 7 21 22 24 23 23 20 12 14 18 23 19 23 45 56 54 59 61 60 65
152 174 177 100 13 32 62 355 336 335 356 360 3 336 355 3 336 356 356 359 4 5 6 4 6 13 21 25 24 25 26 18 23 12 13 20 30 35 34 31 30 37 40
154 151 183 203 333 25 37 318 325 347 347 3 349 336 354 340 339 337 352 343 342 329 350 348 349 351 352 3 8 13 16 15 11 8 12 17 11 2 358 14 20 17 7
167 176 192 234 304 356 285 306 322 348 329 344 335 332 329 9 9 3 349 351 339 343 336 336 338 333 337 327 334 351 350 354 348 351 357 347 343 345 348 356 12 10 5
158 176 214 235 289 302 303 325 329 331 332 321 340 344 347 337 356 348 3 351 340 345 343 326 322 327 323 332 327 328 335 332 334 339 343 342 343 285 46 0 7 30 359
189 206 212 258 262 273 283 302 308 317 321 315 320 319 320 324 327 330 338 330 335 348 339 334 338 312 314 321 331 326 321 326 329 328 332 336 343 308 265 339 59 15 30
202 206 219 224 230 271 271 294 290 300 313 319 314 319 311 313 306 314 317 320 329 328 328 331 337 331 328 316 313 315 313 319 323 331 337 332 352 345 284 244 79 126 24
220 226 230 232 248 232 265 280 286 292 303 309 315 316 313 329 325 328 325 319 328 327 337 328 328 338 330 321 318 316 317 319 320 324 330 345 347 343 279 257 173 352 324
Wind_Speed_850mb
31 27 27 21 26 34 46 55 62 64 61 63 56 37 33 37 42 50 48 51 50 46 54 52 57 48 37 36 36 39 39 30 21 22 28 13 11 11 14 13 24 33 37
25 19 24 21 28 39 45 51 58 67 69 76 67 43 31 40 41 42 40 34 35 43 52 54 45 40 34 36 36 37 36 29 28 29 23 12 17 10 2 3 7 17 26
24 30 26 32 32 39 43 45 54 61 69 69 65 43 38 45 47 39 47 41 42 46 53 52 44 41 38 37 34 32 33 35 28 21 16 10 9 31 4 8 8 12 16
33 32 32 30 32 36 38 39 46 51 64 63 56 49 40 43 39 32 35 37 44 47 48 47 43 41 40 35 33 31 28 28 30 25 11 14 21 11 14 16 18 18 17
41 40 31 24 21 23 27 33 39 48 56 61 58 57 33 36 40 38 34 33 37 39 47 45 46 45 45 41 35 30 28 24 27 23 22 22 16 14 19 27 13 17 16
37 38 31 25 27 20 18 26 39 46 49 53 60 57 38 40 44 48 46 45 44 43 49 45 46 48 40 46 38 28 30 28 25 23 24 25 24 21 16 22 24 21 14
35 29 26 26 28 16 21 31 39 38 43 50 58 51 41 42 46 50 47 46 45 47 48 52 46 44 42 42 35 32 32 32 29 26 24 21 19 23 19 18 19 15 9
27 28 26 26 26 14 23 33 37 34 43 45 50 46 34 41 46 45 43 44 44 44 48 52 46 40 37 40 38 34 33 32 34 29 30 22 13 7 17 18 13 9 1
33 32 30 28 27 25 26 31 35 35 39 38 45 41 31 40 39 40 41 38 41 48 46 53 44 36 34 39 39 38 36 33 31 33 33 21 11 4 8 7 7 7 4
36 31 28 25 22 24 25 21 23 31 34 32 44 44 32 35 35 37 45 36 39 48 56 48 42 39 36 38 41 39 37 34 32 33 33 27 20 12 3 2 5 4 6
38 32 26 21 19 13 19 23 25 26 32 30 46 43 28 36 37 33 42 40 39 45 49 46 42 39 39 36 42 42 41 34 28 27 27 25 20 18 13 8 4 1 3
38 32 25 22 20 18 15 21 25 23 30 27 38 45 29 35 40 34 38 35 35 43 48 40 44 41 42 33 41 49 42 36 31 29 28 27 22 20 12 11 11 8 7
34 30 24 22 18 17 14 18 25 16 22 25 31 38 40 41 39 36 39 37 36 45 49 41 43 42 36 36 37 45 44 41 37 33 36 33 27 27 22 14 11 13 12
32 27 22 19 18 18 13 17 25 21 18 21 27 32 34 39 36 38 36 41 35 42 44 49 46 39 34 34 37 40 41 41 35 30 29 37 33 30 26 17 14 11 11
32 24 20 13 14 14 14 19 27 23 20 17 21 25 29 33 34 34 36 36 34 38 39 43 40 36 35 40 44 41 42 52 49 38 33 32 33 32 27 21 15 10 11
29 22 16 7 9 11 9 17 24 16 20 15 16 17 21 24 29 34 33 30 32 33 36 39 36 32 37 40 43 48 48 46 46 44 34 33 40 40 32 25 17 14 15
22 17 10 5 9 8 8 15 16 9 21 10 16 18 15 22 25 30 27 28 27 28 33 39 32 26 27 28 32 38 42 43 49 45 34 28 31 33 34 39 28 11 6
26 20 15 8 3 4 7 14 9 16 16 14 14 19 16 19 25 31 29 29 27 26 29 32 32 25 25 26 30 30 33 37 39 45 48 38 31 26 27 35 41 40 35
22 16 9 1 2 6 5 12 9 18 12 13 12 19 26 11 20 31 26 28 25 28 26 25 29 29 27 22 21 25 30 32 29 37 42 40 25 27 30 32 34 40 43
13 12 6 2 5 8 3 11 9 18 17 11 11 16 23 21 19 27 21 24 26 24 28 30 24 25 25 26 27 26 28 29 29 33 35 29 26 23 24 25 26 26 26
16 11 5 9 9 9 8 10 16 16 17 13 9 14 14 21 22 22 22 24 28 29 29 27 30 25 22 20 23 26 23 30 30 29 29 22 17 18 20 21 22 26 22
10 13 14 12 6 4 5 8 20 15 14 15 14 8 13 17 15 18 21 26 23 26 24 29 32 32 29 25 24 25 21 26 28 31 33 30 19 8 8 10 15 22 29
13 13 16 11 10 9 13 16 18 18 18 15 18 18 13 15 18 21 19 24 27 27 30 27 29 33 31 31 29 24 23 26 32 36 35 27 30 10 3 5 6 6 14
17 16 14 11 10 10 12 17 20 23 24 14 15 12 22 20 18 20 21 20 22 27 30 29 29 30 31 30 28 25 28 33 38 34 31 27 23 8 5 4 4 1 6
13 18 15 13 12 14 18 20 21 27 29 24 16 18 19 24 20 27 33 24 26 26 31 27 31 32 31 30 32 34 32 35 36 35 33 24 15 15 7 1 4 1 4
18 23 22 22 21 18 20 21 24 29 31 27 18 14 14 17 15 20 29 28 31 30 31 29 30 31 32 30 32 32 31 32 36 39 30 25 16 14 11 9 6 4 9
Wind_Direction_850mb
92 62 35 41 24 22 16 17 17 20 18 20 20 23 31 22 25 26 25 16 7 17 14 10 5 5 1 0 352 342 343 346 335 319 288 283 307 320 332 302 240 238 245
94 76 80 54 38 23 18 18 17 13 15 11 11 28 39 29 25 40 24 30 11 8 4 0 5 1 360 360 356 359 357 2 23 9 357 332 291 275 301 295 259 257 258
95 104 87 59 40 28 19 16 13 14 8 8 14 37 43 34 27 33 33 35 22 8 9 11 7 9 5 2 358 352 353 351 7 10 5 337 327 317 238 327 318 294 290
121 98 80 69 48 33 13 9 16 13 9 8 24 25 34 28 19 9 7 16 12 5 4 5 7 7 1 355 353 351 351 346 348 353 343 314 299 308 302 299 285 268 276
107 96 83 69 53 26 10 11 15 10 13 12 18 12 14 17 18 21 22 9 11 12 4 2 2 2 358 350 345 351 0 342 333 330 329 327 318 289 275 296 287 269 260
108 93 77 49 36 35 21 12 8 11 16 16 16 17 30 33 31 26 22 17 12 11 7 8 3 359 9 9 13 15 8 360 345 327 316 304 300 297 290 278 294 302 295
107 95 84 52 37 57 35 18 9 25 19 15 13 20 37 38 27 22 19 16 14 8 4 359 3 5 8 13 13 12 14 12 2 348 337 322 290 271 275 285 290 301 323
110 97 87 70 46 54 34 26 26 28 21 11 13 22 31 30 27 19 20 15 11 9 1 4 4 2 12 20 21 19 13 11 8 2 346 326 300 286 292 277 270 294 346
115 102 91 80 54 48 52 40 32 22 16 9 14 19 32 29 22 17 16 12 8 4 6 4 5 18 18 19 22 19 16 13 9 16 22 29 15 309 281 231 251 274 286
111 96 93 88 78 42 25 23 19 12 8 9 19 21 25 17 15 16 15 9 9 9 15 6 12 19 19 19 18 17 20 18 26 34 40 44 41 41 21 252 237 229 248
105 100 92 76 54 45 16 19 20 14 8 16 24 21 24 17 15 14 11 10 16 13 5 8 7 11 20 24 23 19 18 23 28 35 34 32 40 39 45 61 115 147 189
101 96 85 66 55 38 15 6 13 28 9 13 19 16 28 15 19 18 8 5 14 12 8 12 7 15 21 24 24 20 20 25 29 32 29 34 32 33 49 72 68 68 76
112 96 77 60 64 33 15 4 7 50 18 3 9 13 20 15 15 15 17 17 16 12 17 20 18 17 25 25 28 27 31 34 32 33 43 48 51 45 49 74 59 74 63
116 111 90 63 40 36 12 5 5 35 39 12 7 6 16 15 10 8 13 12 17 19 22 21 20 23 28 34 35 33 35 33 29 36 34 45 51 54 56 60 73 71 48
112 111 111 91 41 41 14 360 0 28 26 18 5 7 10 8 10 4 9 7 16 20 23 21 26 38 46 43 47 52 43 42 46 48 58 55 50 49 49 52 57 45 41
115 118 120 99 62 15 22 355 4 27 6 30 4 358 15 7 9 3 3 10 14 19 23 26 30 49 52 56 53 47 42 42 42 43 50 54 50 44 45 43 47 68 87
125 136 134 82 78 35 17 355 15 13 355 35 2 356 6 350 354 356 2 13 15 17 17 23 25 37 38 49 40 28 27 33 39 36 33 35 27 27 39 41 45 50 36
129 137 141 129 96 11 37 5 9 347 0 10 1 347 353 10 6 360 10 10 8 15 10 16 22 25 31 34 40 28 21 23 26 27 25 21 23 46 65 60 59 65 71
141 149 174 263 67 35 33 32 1 341 354 356 360 344 352 355 351 8 1 8 9 16 6 7 21 22 24 23 23 20 12 14 18 23 19 23 45 56 54 59 61 60 65
152 174 177 100 13 32 62 355 336 335 356 360 3 336 355 3 336 356 356 359 4 5 6 4 6 13 21 25 24 25 26 18 23 12 13 20 30 35 34 31 30 37 40
154 151 183 203 333 25 37 318 325 347 347 3 349 336 354 340 339 337 352 343 342 329 350 348 349 351 352 3 8 13 16 15 11 8 12 17 11 2 358 14 20 17 7
167 176 192 234 304 356 285 306 322 348 329 344 335 332 329 9 9 3 349 351 339 343 336 336 338 333 337 327 334 351 350 354 348 351 357 347 343 345 348 356 12 10 5
158 176 214 235 289 302 303 325 329 331 332 321 340 344 347 337 356 348 3 351 340 345 343 326 322 327 323 332 327 328 335 332 334 339 343 342 343 285 46 0 7 30 359
189 206 212 258 262 273 283 302 308 317 321 315 320 319 320 324 327 330 338 330 335 348 339 334 338 312 314 321 331 326 321 326 329 328 332 336 343 308 265 339 59 15 30
202 206 219 224 230 271 271 294 290 300 313 319 314 319 311 313 306 314 317 320 329 328 328 331 337 331 328 316 313 315 313 319 323 331 337 332 352 345 284 244 79 126 24
220 226 230 232 248 232 265 280 286 292 303 309 315 316 313 329 325 328 325 319 328 327 337 328 328 338 330 321 318 316 317 319 320 324 330 345 347 343 279 257 173 352 324